ECMWFFLT1_925_thetae_084.txt.gz
Theta_e
336 336 335 334 333 333 333 333 333 333 333 332 333 334 334 334 334 335 335 336 336 336 335 334 334 334 333 333 333 334 335 335 335 335 334 334 333 333 333 334 333 332 332 332 331 331 331 331 332 331 331 331 330 331 331 330 330 331 331 330 329 330 330
336 336 336 335 334 334 333 333 333 332 332 332 332 333 334 334 334 335 334 335 335 335 335 335 335 334 334 334 334 335 334 334 335 335 335 334 333 333 334 333 332 332 332 332 332 332 331 330 330 331 331 331 331 331 331 330 330 330 330 330 329 329 329
336 336 335 335 334 333 332 331 331 331 331 331 332 333 334 334 334 334 334 334 335 335 335 335 336 335 336 336 336 336 334 334 335 335 335 335 334 333 333 333 333 333 333 333 332 332 332 331 330 330 331 331 331 331 330 330 330 330 330 330 329 328 328
336 336 334 334 333 332 331 331 331 331 331 331 332 333 333 334 334 334 334 334 335 335 335 335 336 336 336 336 336 336 335 335 335 335 335 335 334 333 333 333 333 333 332 332 332 331 331 331 329 330 331 330 330 331 330 329 329 330 329 329 328 328 328
335 336 335 333 332 332 332 332 332 332 332 332 332 332 333 333 333 334 335 334 335 335 334 334 335 335 336 336 335 335 335 335 335 334 335 335 334 333 333 333 332 332 332 331 330 330 330 330 330 330 330 329 329 330 330 329 329 329 329 328 328 328 327
335 335 335 334 333 333 333 332 332 332 333 332 332 333 332 333 333 334 335 335 335 334 334 334 335 335 335 335 335 335 335 334 335 334 334 335 335 334 333 333 332 332 332 330 330 330 330 330 330 330 330 329 330 330 329 329 329 329 328 328 328 327 326
334 335 335 334 334 334 333 332 330 330 332 332 332 333 333 333 333 333 334 335 335 334 334 334 335 335 335 335 334 334 334 334 334 334 334 334 334 334 333 332 332 332 331 331 331 331 330 331 330 330 330 330 330 330 329 329 329 329 328 327 327 327 326
333 334 334 334 334 334 334 333 331 331 332 332 332 333 332 333 334 333 334 334 335 335 334 334 335 335 335 335 334 334 334 334 334 335 334 334 334 334 333 332 333 333 332 331 331 330 330 330 329 330 330 330 330 330 330 329 329 329 328 327 327 326 326
332 332 333 334 334 334 334 334 334 333 333 332 332 332 332 333 333 333 334 334 334 335 334 334 335 335 335 335 334 334 334 334 335 335 334 334 333 333 334 333 333 333 332 332 331 330 330 330 329 330 330 329 329 329 329 329 329 329 328 328 327 326 326
331 332 333 334 335 334 334 334 334 333 332 332 333 333 332 332 332 333 334 334 334 335 335 335 335 335 335 335 334 334 334 334 334 335 333 333 333 332 332 333 333 332 332 332 332 331 331 331 330 330 330 330 329 329 329 328 329 329 328 328 327 326 326
330 331 332 333 333 333 333 333 332 331 331 332 333 333 332 331 332 333 333 333 334 334 334 335 335 335 335 334 333 334 335 335 334 334 333 333 333 332 332 333 333 332 331 331 331 331 332 331 331 331 330 330 329 329 328 328 329 329 329 328 327 326 325
329 330 331 331 332 332 332 331 330 331 331 332 333 333 332 332 332 333 333 333 334 334 334 335 336 334 333 333 333 334 335 335 334 333 333 334 334 334 334 333 333 333 332 332 331 331 332 332 332 331 331 330 329 330 329 327 328 328 329 328 326 326 324
328 330 331 331 331 331 331 331 330 331 332 332 333 333 332 332 332 333 333 333 334 334 335 335 335 333 332 332 333 333 333 335 334 333 333 334 333 333 332 332 334 333 333 333 332 332 332 332 332 331 330 331 330 330 330 328 329 329 329 328 326 326 325
328 329 329 330 331 331 330 330 330 331 332 332 333 333 332 333 333 333 333 333 334 334 335 335 334 334 333 333 333 333 334 335 334 333 333 334 333 332 332 332 333 333 332 332 332 332 332 332 332 332 331 331 330 330 330 328 328 330 329 327 326 325 325
326 328 329 329 330 330 330 330 330 330 331 332 333 333 333 332 332 333 333 332 333 334 334 334 334 335 334 332 333 334 334 334 334 333 333 333 333 332 332 331 331 332 333 333 332 332 332 331 331 331 331 331 330 330 329 328 327 328 327 326 325 323 324
323 325 328 328 328 329 329 330 330 330 331 332 332 333 333 332 332 333 333 332 333 334 333 333 332 333 332 332 333 335 334 335 335 334 333 333 332 331 331 331 330 331 332 333 333 332 331 331 331 331 330 330 329 328 328 328 326 324 323 323 322 321 321
321 322 324 326 328 328 328 329 329 330 331 331 332 332 333 333 333 333 333 332 333 333 332 332 331 330 331 333 334 334 334 335 335 334 334 333 331 330 331 332 331 331 332 332 333 332 331 331 331 330 330 329 329 328 328 327 324 321 320 321 320 319 319
318 318 320 323 325 327 328 328 329 329 330 330 332 332 332 333 333 333 333 332 332 332 331 331 331 330 329 331 333 333 334 335 335 334 333 331 330 330 331 332 332 332 333 332 332 332 332 332 331 330 329 328 327 327 328 327 324 321 320 320 320 319 319
317 317 318 320 322 325 326 327 328 329 329 329 331 331 331 331 332 332 332 332 332 331 330 330 331 330 329 330 333 333 333 333 332 332 332 331 330 331 331 332 332 332 333 332 332 332 331 331 331 330 329 328 326 326 327 327 325 323 321 321 321 320 320
316 316 317 318 320 323 325 326 327 328 328 329 330 331 331 331 331 331 331 331 331 331 330 330 330 330 329 330 332 333 333 333 331 330 330 330 331 332 332 332 332 332 332 332 332 332 332 332 331 331 331 329 327 327 327 327 326 324 323 322 322 321 321
315 315 315 317 318 321 323 325 326 327 328 328 329 330 330 330 331 331 331 331 331 331 330 330 329 330 329 329 331 332 333 333 332 330 330 331 332 332 332 332 332 332 332 332 331 332 332 332 332 332 332 331 329 328 328 326 326 325 324 324 323 323 322
314 314 314 315 316 318 321 323 326 326 327 328 328 329 330 330 330 329 330 331 332 331 330 330 329 330 329 329 330 333 332 333 332 331 332 332 332 332 332 332 332 332 332 331 331 332 332 332 332 331 330 329 329 330 328 326 326 326 325 326 325 324 323
312 313 313 314 314 316 319 322 324 326 327 327 328 328 329 329 330 329 329 330 331 331 331 331 330 330 330 329 331 332 332 332 333 333 333 333 332 332 331 330 331 332 331 331 331 331 331 331 331 330 329 327 327 331 330 328 327 326 325 326 325 325 325
311 311 312 312 313 314 315 318 321 324 326 326 327 327 328 328 329 328 328 329 330 331 331 331 330 330 330 329 330 331 332 332 332 332 332 332 332 332 331 331 332 332 331 331 331 330 330 330 329 329 328 325 326 330 331 329 328 328 327 326 326 326 326
311 310 310 311 311 312 313 314 315 318 321 324 325 326 326 327 327 327 327 328 329 329 329 330 330 329 328 328 328 329 330 331 331 330 331 331 330 331 331 331 332 332 330 330 330 329 329 329 327 327 327 326 326 328 328 328 328 327 325 325 325 325 324
310 309 309 310 310 310 310 311 311 312 315 319 322 323 324 325 325 325 327 327 327 326 327 327 328 327 327 328 328 328 328 329 329 328 329 330 329 328 329 330 330 329 328 329 329 329 328 328 327 326 326 326 325 325 325 327 328 325 323 324 325 323 322
309 309 309 309 309 308 308 309 309 309 311 314 317 319 320 320 320 321 323 325 325 325 325 325 326 326 326 328 328 327 326 327 328 328 328 328 327 327 328 328 328 328 327 328 327 326 326 326 325 324 323 323 322 323 323 324 325 324 323 323 323 323 322
309 308 308 308 308 307 307 307 307 307 308 309 311 313 314 314 314 315 317 319 321 322 322 323 324 325 326 327 327 326 326 328 328 328 328 329 328 328 328 327 327 327 326 327 326 325 324 324 322 321 321 320 319 319 319 318 319 321 323 324 325 326 325
308 308 308 307 307 306 306 306 306 306 306 306 307 308 309 310 311 311 312 313 315 316 317 319 322 324 324 325 326 326 327 328 329 328 329 329 328 328 328 327 327 326 326 325 325 324 323 322 321 320 319 318 316 315 315 316 318 322 326 326 325 324 324
308 307 307 307 306 305 305 305 305 305 305 305 304 304 305 306 308 309 310 310 311 312 313 316 319 319 318 319 322 324 326 327 328 328 328 327 327 327 327 326 326 326 325 325 324 322 321 320 320 319 318 316 315 314 313 314 317 320 323 322 320 320 319
307 307 307 306 306 305 305 305 305 304 304 303 303 302 302 303 304 306 307 308 309 310 311 314 316 316 315 317 321 324 325 326 326 326 325 324 323 323 324 324 324 324 323 322 320 319 318 319 319 319 318 316 316 314 313 314 315 316 317 317 316 316 316
305 306 307 306 305 305 305 304 304 304 303 303 302 302 301 301 301 302 304 306 308 309 310 312 314 315 315 317 320 321 322 323 323 322 320 319 318 318 319 321 322 322 320 318 318 317 318 318 318 317 317 317 316 314 313 313 313 313 313 313 312 312 311
303 304 306 306 305 305 304 304 303 303 303 303 302 302 301 301 301 300 302 303 304 306 309 311 313 314 314 315 317 318 319 320 320 318 317 315 314 313 314 317 318 318 317 316 316 317 317 317 317 317 317 317 316 314 313 312 312 312 313 312 310 310 309
303 303 304 305 305 304 304 304 303 302 302 302 302 302 301 301 300 299 300 300 300 302 306 309 310 312 312 313 315 316 316 316 315 314 313 311 310 310 311 314 316 316 315 316 316 317 316 316 317 317 317 317 316 314 312 311 312 312 312 311 310 309 309
302 302 303 303 304 304 304 304 303 303 302 302 301 301 301 300 300 299 299 299 298 300 303 305 306 308 310 311 313 314 315 314 312 312 311 309 308 308 308 311 314 314 314 315 315 315 315 315 315 315 315 315 314 312 310 310 311 311 311 310 309 309 308
302 302 302 302 303 304 304 304 303 303 302 302 301 301 300 300 300 300 299 298 298 298 300 301 303 304 307 309 310 311 312 312 311 311 310 307 306 306 306 308 310 311 312 313 313 313 313 313 312 311 311 310 310 309 309 310 310 310 309 309 308 308 308
301 301 301 301 302 303 303 303 303 302 302 302 301 301 300 300 299 299 299 298 297 298 298 299 299 301 302 305 307 308 309 309 309 310 309 306 305 306 306 306 308 310 311 311 310 310 310 309 307 305 305 305 305 305 307 307 308 307 307 307 307 307 306

ECMWFFLT1_925_thetae_087.txt.gz
Theta_e
337 337 337 337 338 337 337 337 335 334 334 334 333 333 334 335 335 335 335 335 335 335 335 336 336 337 338 337 337 337 334 334 334 333 333 334 335 335 333 333 334 334 333 333 332 332 333 333 332 333 332 332 332 332 331 331 331 331 331 331 331 330 330
338 338 337 337 337 337 336 337 336 334 334 333 333 333 334 334 335 335 335 335 335 334 334 334 335 337 338 338 337 336 335 335 334 333 332 333 334 334 333 333 334 334 333 332 333 332 331 332 332 332 332 333 333 332 331 331 330 331 331 331 331 330 330
338 338 338 337 337 337 336 336 335 335 334 333 333 333 334 334 335 335 335 335 334 334 334 334 334 336 337 337 336 335 335 335 334 334 333 332 332 333 333 334 334 333 332 333 334 334 332 332 332 332 333 333 332 332 331 331 330 331 331 331 331 330 329
338 338 338 337 336 336 336 335 335 335 334 333 332 332 333 334 334 334 334 334 334 334 335 334 334 335 336 336 335 334 334 334 334 334 333 333 332 331 332 333 333 333 333 334 334 333 332 332 332 331 333 332 332 332 331 331 330 330 330 331 330 330 330
338 337 337 337 336 335 335 335 334 334 334 333 332 332 333 333 334 334 334 334 335 334 334 334 334 334 334 334 334 334 333 333 334 335 334 333 332 332 332 332 333 333 334 334 334 333 332 331 331 331 332 331 331 331 331 331 330 330 330 330 330 330 329
337 337 336 336 336 336 335 335 335 333 334 334 334 333 331 333 334 334 334 334 334 334 334 334 334 334 334 333 333 333 333 333 334 334 334 333 333 333 332 333 334 334 334 333 332 332 331 331 331 331 330 330 330 331 331 330 330 330 330 329 330 330 329
335 336 335 334 335 337 336 336 336 335 335 334 333 331 330 332 333 333 334 334 333 334 335 334 335 335 334 333 333 333 333 334 333 334 334 334 334 334 332 333 334 334 334 333 331 332 332 332 332 332 331 329 330 331 330 330 330 330 330 329 329 329 329
333 334 335 334 334 335 335 335 334 334 336 335 333 332 332 333 334 334 335 334 333 334 335 335 334 334 333 333 333 332 333 334 334 334 334 334 334 334 333 334 335 333 333 333 332 331 332 332 331 331 332 330 330 330 330 329 329 330 329 329 329 329 329
332 333 334 333 334 333 332 333 332 332 335 336 334 333 334 335 335 335 335 334 334 334 334 335 334 333 333 333 333 331 332 334 335 335 334 333 333 333 333 334 335 334 333 333 332 331 331 331 330 331 331 330 329 330 330 329 330 330 329 329 329 328 328
330 332 332 332 333 332 329 329 331 332 333 335 335 334 334 334 334 334 335 335 335 335 335 334 334 334 333 333 333 332 333 335 335 335 335 334 334 333 333 334 334 333 333 333 333 331 332 332 331 331 331 330 329 329 331 330 330 331 330 329 329 328 328
329 330 332 331 331 332 330 329 331 331 332 334 334 334 334 334 334 334 334 336 336 335 335 334 334 334 333 332 333 333 334 334 335 335 335 334 333 334 335 333 333 333 332 333 333 333 332 332 332 331 330 330 330 330 331 329 330 330 329 329 328 328 328
328 329 331 331 330 330 330 330 331 331 330 332 332 333 334 334 334 334 334 335 336 335 334 334 334 334 333 332 333 333 334 334 333 334 333 332 332 334 334 333 334 334 334 334 335 334 333 331 332 332 330 331 330 330 331 330 330 330 329 329 328 328 328
326 328 329 330 330 330 330 330 330 330 329 330 331 332 334 335 334 334 333 334 334 334 334 334 334 333 332 333 334 334 334 333 333 332 331 330 332 334 334 334 334 334 334 334 334 335 333 330 331 332 330 331 330 330 331 330 330 330 330 329 327 327 327
325 326 328 329 329 330 330 330 330 330 330 330 330 331 333 335 334 333 333 334 333 333 334 334 334 333 332 333 334 334 334 333 333 332 331 330 332 334 334 334 333 332 333 333 333 333 333 331 331 331 330 330 330 330 331 329 330 331 331 329 327 327 326
323 324 326 327 328 329 330 330 330 330 331 330 330 331 332 333 334 333 333 334 334 333 334 334 333 333 333 332 333 333 333 333 332 331 331 331 332 334 334 334 333 331 331 333 333 333 333 331 331 331 330 330 330 330 330 330 330 330 331 329 327 326 326
321 322 323 324 326 327 328 329 330 330 330 330 331 332 332 332 333 334 333 333 333 334 335 334 333 334 333 332 332 333 333 332 331 331 331 331 331 332 333 333 332 332 333 333 334 333 332 331 331 331 330 330 329 329 330 329 329 329 330 329 327 326 326
320 320 321 321 323 324 325 327 329 330 330 331 331 333 332 332 334 334 333 332 333 334 335 334 334 334 333 333 332 331 332 332 332 330 329 330 330 330 332 333 333 333 334 333 333 333 332 330 330 331 330 329 329 329 329 329 328 329 329 327 326 325 325
319 319 319 320 320 321 322 324 326 328 329 330 331 332 332 333 334 333 332 332 332 333 333 333 334 334 334 334 332 331 331 331 331 331 330 329 329 329 332 334 333 333 334 333 332 333 333 331 330 331 330 329 329 329 329 328 327 327 327 325 323 323 322
318 318 318 318 318 319 320 322 324 326 328 329 330 331 331 333 334 333 332 331 331 332 331 332 333 333 333 333 333 331 331 331 331 331 330 330 329 330 332 333 332 331 332 332 332 333 332 331 331 330 329 329 329 328 328 328 326 324 323 322 320 320 319
317 317 317 317 318 318 318 320 322 324 326 328 329 330 330 331 332 333 332 331 331 331 331 332 333 333 334 334 333 332 331 331 330 331 331 330 329 329 331 332 331 330 330 331 332 333 332 331 330 329 329 329 328 327 328 328 326 323 322 321 320 320 319
316 316 316 316 316 316 317 318 320 321 323 326 328 329 330 330 330 331 332 332 331 331 330 331 332 332 333 334 333 333 332 331 330 331 332 332 329 330 332 332 331 330 330 330 331 332 332 331 330 328 328 327 326 326 328 327 325 323 322 321 321 321 320
315 315 315 315 315 315 315 316 317 317 319 321 325 327 328 329 330 330 331 332 331 331 330 330 330 331 332 333 333 333 331 331 330 330 331 332 331 331 332 332 332 331 330 330 329 330 331 331 330 328 328 328 326 326 328 327 326 325 323 322 322 322 321
315 314 314 314 314 314 314 314 314 315 315 317 320 323 324 327 328 329 331 331 331 330 330 330 331 331 331 331 331 332 332 331 330 330 330 330 331 332 331 331 331 331 330 329 329 330 329 330 330 329 329 330 327 326 328 327 326 325 324 324 323 323 322
314 313 313 313 313 313 313 313 313 313 313 313 315 317 318 321 324 326 328 328 329 330 330 329 330 331 331 330 330 331 332 331 330 329 329 329 331 332 331 331 331 330 330 330 329 330 330 330 330 329 330 330 327 327 328 328 327 327 325 325 325 324 324
313 313 312 312 312 311 311 311 311 311 311 311 311 312 313 315 318 322 324 325 327 328 328 328 329 330 330 330 330 330 331 330 328 328 329 328 329 330 329 329 330 330 330 330 329 330 330 330 330 330 331 330 328 328 329 327 327 328 326 325 325 324 325
312 312 311 311 310 310 310 310 309 309 310 310 309 309 309 310 312 316 318 320 322 323 324 326 328 328 329 330 330 330 329 328 327 328 328 328 328 330 330 328 329 330 330 330 330 331 330 330 330 330 330 329 328 328 329 328 328 328 326 324 324 324 324
311 311 311 310 310 310 309 309 309 308 308 308 308 307 306 306 307 310 312 314 315 317 320 323 326 326 327 328 328 329 328 328 327 326 327 328 329 331 332 331 330 330 331 331 330 330 329 330 330 329 329 329 328 327 326 327 328 326 324 324 324 324 322
311 310 310 310 310 309 309 308 308 307 307 307 306 305 305 304 304 305 307 309 310 312 314 318 321 322 324 324 325 327 327 327 326 325 326 329 329 329 330 330 330 330 330 330 329 329 329 328 328 328 327 326 325 324 323 324 326 325 323 324 325 323 322
310 310 310 310 309 309 308 307 307 306 306 306 305 304 304 303 303 303 304 305 307 308 309 312 315 317 320 322 323 325 326 326 326 325 325 328 329 328 328 328 327 327 328 328 327 328 328 328 327 327 324 322 321 320 320 321 323 323 323 324 324 323 323
309 309 309 309 309 308 307 307 306 306 305 305 304 304 303 303 302 302 302 303 304 305 306 309 311 314 317 319 319 322 324 325 324 324 325 327 328 327 326 327 326 326 327 327 326 327 327 327 327 326 322 319 317 316 316 319 321 323 324 325 324 323 324
308 308 308 308 308 308 307 306 306 305 305 304 304 303 303 302 302 301 301 301 301 302 304 307 309 312 315 316 317 320 322 323 324 325 325 325 325 324 324 326 326 326 327 327 325 326 326 325 326 324 321 318 316 314 314 316 318 320 321 320 318 318 320
307 307 308 307 307 307 307 306 306 305 304 304 303 303 302 302 301 301 300 300 300 301 302 305 308 311 314 315 317 320 322 322 323 322 321 321 320 320 322 324 325 325 326 325 324 324 323 324 324 322 320 318 316 314 313 314 315 316 315 314 313 314 315
306 306 306 307 306 306 306 306 306 305 305 304 303 302 302 302 301 300 300 300 300 299 300 302 306 310 313 314 316 319 321 320 318 318 318 317 316 317 318 320 321 321 322 322 322 321 321 322 322 322 321 319 317 316 315 314 315 315 314 313 312 312 312
305 305 305 306 306 306 305 305 305 305 305 304 304 303 302 302 301 300 300 299 299 299 299 300 303 307 310 312 314 316 318 318 316 316 315 314 313 314 315 316 316 316 318 319 319 320 320 321 321 321 320 318 316 315 315 314 314 314 312 311 311 310 310
304 304 304 304 304 304 304 304 304 304 304 304 303 303 302 302 301 301 300 299 299 299 299 299 300 303 306 309 311 313 315 315 314 314 313 311 311 312 313 313 312 312 314 317 317 318 318 319 319 318 318 316 315 314 314 313 312 312 311 311 310 310 309
303 303 302 302 302 302 302 302 303 303 303 303 303 302 302 302 301 300 300 299 298 298 299 299 299 300 302 304 307 309 311 311 311 312 312 309 308 309 310 311 311 310 312 314 315 316 316 317 317 316 315 314 314 313 313 312 312 311 311 310 310 309 308
302 302 302 302 302 301 301 301 302 302 302 302 302 302 302 301 301 300 300 299 298 298 298 299 300 300 300 300 302 305 307 308 309 309 309 306 305 306 308 308 309 309 310 312 313 314 314 313 313 313 312 312 312 311 311 310 310 310 309 309 308 308 307

ECMWFFLT1_925_thetae_093.txt.gz
Theta_e
336 337 338 337 337 338 338 338 338 338 338 337 338 337 336 336 336 335 335 334 333 334 335 334 334 334 334 334 334 335 335 334 334 334 333 332 331 331 332 332 332 332 331 332 333 335 335 335 333 332 332 331 331 331 332 331 330 330 330 330 329 329 329
335 336 336 337 337 337 337 337 337 337 336 336 336 336 336 336 335 335 334 334 333 334 335 335 334 334 334 334 334 334 335 334 334 334 332 332 332 333 333 333 332 332 331 331 332 332 333 334 334 332 331 330 330 331 332 331 331 331 329 330 329 329 329
333 334 335 335 336 336 336 336 336 336 336 336 335 335 335 335 335 335 334 334 333 334 335 335 335 334 334 334 334 334 334 334 334 334 333 332 333 333 334 334 334 333 331 331 333 332 331 332 334 332 330 331 330 330 331 331 331 331 330 330 330 330 330
331 332 333 333 334 335 336 336 336 335 335 335 334 335 334 334 333 334 334 333 333 334 335 335 335 335 334 334 334 334 334 334 334 334 333 333 333 333 334 334 334 333 332 332 333 332 331 331 332 332 330 331 331 330 331 331 331 330 330 330 330 330 330
328 329 330 332 333 333 334 334 335 335 333 332 332 333 333 333 333 333 333 333 334 334 334 335 335 335 335 334 334 334 334 334 333 333 333 333 333 333 333 333 333 333 333 333 333 333 332 331 331 330 330 331 332 331 331 332 331 331 331 331 330 330 330
326 327 328 330 332 332 331 332 333 333 333 332 332 332 332 332 333 333 333 333 333 334 334 334 334 335 335 334 334 334 334 333 332 332 333 333 334 333 333 333 334 334 333 333 333 333 333 331 330 330 330 331 331 331 332 332 331 331 331 331 330 330 330
325 326 327 329 331 331 331 331 331 331 332 332 332 332 331 331 332 332 333 332 332 333 333 334 334 334 334 334 334 334 334 333 332 332 333 334 335 334 333 334 334 335 334 333 334 333 332 331 329 329 330 330 329 329 331 333 332 331 330 331 330 331 330
324 324 326 327 328 329 330 331 331 331 332 331 331 332 332 331 330 331 332 332 332 332 332 333 333 334 334 333 334 334 334 334 333 331 332 334 335 334 333 333 333 334 333 333 333 333 332 331 330 329 329 328 328 328 328 330 332 330 330 331 331 330 330
323 323 324 324 325 327 329 330 330 330 331 331 331 331 331 330 330 330 331 331 332 332 332 332 333 333 333 333 333 333 334 334 333 333 332 332 334 335 334 334 334 333 333 333 333 333 333 331 330 329 328 328 329 330 329 330 330 330 330 330 330 330 329
322 322 322 322 323 325 325 326 327 328 329 330 330 331 331 330 330 330 330 330 331 332 332 332 333 333 333 333 334 333 334 334 334 334 333 332 333 334 334 334 334 334 334 332 332 332 332 331 330 329 328 328 328 329 330 332 330 329 329 330 329 329 328
321 321 321 321 321 321 322 323 324 325 326 328 329 329 330 330 329 330 330 330 330 330 331 332 332 332 331 331 332 332 332 333 332 333 333 332 333 333 333 334 334 334 334 332 332 332 331 331 330 329 329 328 328 328 329 331 331 328 328 329 329 328 328
320 319 319 320 320 319 319 320 321 322 324 325 326 327 329 330 329 329 329 330 330 330 330 331 331 332 330 330 329 329 330 330 330 331 332 333 333 333 333 333 334 334 334 333 332 332 332 331 330 329 329 328 328 327 328 329 331 330 328 328 328 328 328
319 318 318 318 318 318 318 318 319 320 322 323 324 325 328 329 329 329 329 330 330 330 330 330 331 331 331 329 329 329 330 330 329 331 332 332 332 333 333 333 334 333 333 333 333 333 332 331 330 330 329 329 328 328 328 328 329 330 329 328 329 328 328
317 316 317 316 317 317 317 317 318 319 319 320 321 323 325 326 328 329 330 329 329 329 329 330 330 329 330 329 329 329 328 329 330 332 333 331 331 332 332 333 333 332 332 333 333 333 332 331 331 330 329 329 328 328 329 328 329 329 329 328 329 328 328
315 315 315 315 315 315 316 316 316 317 317 318 319 320 322 324 325 327 328 329 329 329 329 329 328 328 329 329 330 328 328 330 331 331 332 331 330 330 331 332 332 330 330 331 332 333 332 331 331 331 330 330 328 329 329 329 329 328 328 329 328 328 328
314 314 314 313 314 314 314 314 314 315 315 315 317 318 319 321 322 323 326 327 328 329 328 328 328 328 329 330 330 329 329 331 332 331 331 331 330 330 331 331 331 331 331 331 331 332 331 331 331 331 330 329 328 328 329 328 327 327 327 328 328 327 327
313 313 312 312 312 313 312 312 312 313 313 313 313 315 317 319 319 320 322 324 326 327 326 325 326 327 328 330 331 330 329 329 330 329 329 330 330 331 331 331 331 332 331 331 331 331 330 330 330 330 329 329 328 329 328 327 327 327 327 327 327 327 327
312 312 311 311 311 311 311 311 311 311 311 311 311 311 313 315 315 316 317 320 322 321 320 321 321 322 323 325 327 329 328 328 328 328 327 327 329 331 332 332 332 331 330 330 330 330 330 330 330 330 329 329 328 328 328 328 328 327 327 327 325 326 327
312 312 311 311 310 310 310 310 310 309 309 309 309 308 309 311 311 312 314 316 317 317 316 316 317 318 319 322 324 326 327 328 328 328 327 326 328 331 332 332 331 330 330 330 330 330 329 330 330 329 329 329 328 328 328 329 328 327 327 327 325 325 325
311 311 311 310 310 310 309 309 309 308 308 308 307 307 307 308 308 309 311 313 314 313 312 313 314 315 317 319 321 324 326 327 327 327 327 327 329 331 332 332 331 330 330 331 330 330 329 330 330 329 329 329 328 328 328 329 329 327 327 327 325 325 325
310 310 310 310 309 308 308 308 307 307 307 306 306 306 305 305 305 306 307 309 310 309 309 309 310 311 313 316 319 321 323 326 327 327 327 327 329 330 332 332 331 330 331 331 331 330 330 330 330 330 330 329 329 329 329 329 328 327 327 326 326 325 324
309 309 309 308 308 308 307 307 306 306 305 305 305 304 304 304 304 304 304 304 305 306 306 305 306 307 309 313 316 319 320 323 326 327 327 327 327 329 331 331 331 330 331 330 331 331 330 330 330 330 330 329 328 329 329 329 327 326 326 326 325 324 324
308 308 308 307 307 307 307 306 305 305 305 304 304 303 302 302 302 302 302 302 302 303 302 302 304 306 308 310 313 316 319 321 323 325 326 326 328 330 332 330 330 330 330 330 330 330 331 331 330 330 330 329 329 329 329 328 327 326 325 325 325 324 323
308 307 307 307 307 306 306 306 305 304 304 303 303 302 301 301 301 301 301 301 301 301 300 301 303 306 308 309 311 313 317 320 322 323 325 326 327 329 331 330 329 330 329 329 329 329 329 330 330 330 330 330 329 330 329 328 327 325 325 325 325 324 323
307 307 306 306 306 306 306 306 305 304 304 303 303 302 301 301 300 300 300 300 300 300 299 300 303 306 308 310 311 313 315 318 320 322 324 325 326 327 329 330 329 328 328 328 328 329 329 329 330 329 329 329 330 329 328 328 326 324 325 325 324 323 322
306 306 306 306 305 305 305 305 305 304 303 303 303 302 301 301 300 300 300 300 300 300 299 300 302 305 308 310 313 314 315 316 319 321 323 323 325 327 328 329 328 327 327 327 328 329 329 329 329 329 329 329 329 328 327 326 326 325 325 325 324 323 322
304 304 304 305 304 304 304 305 305 304 303 303 302 302 301 301 300 300 299 299 299 299 298 299 301 305 307 310 313 315 316 317 318 320 321 322 324 326 327 327 327 327 327 327 328 328 329 329 328 328 329 329 328 328 327 327 326 327 326 325 325 325 322
302 302 302 303 303 304 304 304 304 303 303 302 302 302 301 301 300 299 299 299 298 298 298 298 301 303 306 309 313 315 317 318 319 319 320 323 324 325 326 326 327 327 327 326 327 328 328 328 327 327 327 327 327 327 327 327 327 327 327 326 326 325 323
301 301 301 302 302 302 303 303 303 303 302 302 301 301 301 300 299 299 299 298 298 298 298 299 300 302 304 307 311 313 314 316 318 318 319 321 323 324 326 327 327 327 327 326 327 327 327 326 325 326 326 325 325 326 325 325 326 325 326 326 326 325 324
300 299 300 300 301 301 301 302 302 302 301 301 301 301 300 300 299 299 298 298 298 297 297 298 299 301 302 304 308 310 311 311 313 314 314 315 317 319 322 325 327 327 327 327 327 326 326 325 325 325 324 323 323 322 322 322 323 324 326 326 325 325 324
298 298 298 299 299 300 300 300 300 299 300 300 301 300 300 300 299 299 298 298 297 297 297 298 299 299 301 302 304 306 307 308 309 310 311 311 313 314 316 320 324 325 326 327 326 326 325 325 324 324 323 322 321 320 319 320 320 321 322 322 322 322 322
298 298 298 298 298 298 299 299 298 298 298 299 299 300 299 299 299 299 298 298 297 297 297 298 299 299 299 301 302 302 304 304 304 305 306 307 309 311 312 315 319 322 323 325 325 325 324 324 324 323 322 321 319 317 317 317 315 315 317 317 318 318 317
299 298 298 298 298 297 298 298 297 297 297 297 298 299 299 298 298 298 298 298 297 297 297 297 298 299 299 300 300 301 302 301 301 301 302 303 305 307 310 312 315 318 320 322 324 325 324 324 324 323 321 321 318 314 313 313 312 313 314 314 314 314 313
299 298 298 297 297 297 297 297 297 296 296 296 296 297 298 298 297 297 297 297 297 297 297 297 298 299 299 299 300 300 301 300 299 299 300 301 302 303 305 308 311 315 318 321 323 325 324 323 323 321 320 320 317 314 312 312 312 313 312 312 311 311 311
300 299 298 297 297 297 297 297 296 296 295 295 295 296 297 297 296 296 296 296 296 297 297 297 297 298 299 299 300 300 300 300 300 300 300 300 300 300 301 303 305 310 316 319 320 322 323 322 321 320 319 317 315 313 312 311 311 311 311 310 309 309 308
300 299 298 298 297 297 296 296 296 295 295 295 295 295 296 296 296 295 295 295 296 296 297 297 297 298 298 299 299 299 300 300 300 300 300 299 299 299 300 301 302 306 310 312 313 317 320 320 319 318 317 315 314 312 311 310 310 310 309 308 307 306 306
300 299 299 298 297 297 296 296 295 295 295 295 294 295 295 295 295 295 294 294 295 296 297 298 297 297 298 298 298 299 299 300 300 300 299 299 299 300 300 300 302 304 306 306 307 310 314 315 315 314 314 313 312 311 310 309 309 308 307 306 305 304 304

ECMWFFLT1_925_thetae_096.txt.gz
Theta_e
333 333 333 334 335 335 336 336 336 336 336 336 336 336 336 335 336 336 335 335 334 333 333 332 333 334 334 334 334 334 334 334 333 332 332 332 331 330 331 331 331 331 331 332 332 333 335 335 333 332 331 331 331 331 331 331 331 331 330 328 327 326 326
331 331 332 333 333 333 333 334 334 335 335 335 335 335 335 335 335 335 335 335 334 333 332 332 332 334 334 334 334 334 334 334 334 333 332 332 331 330 330 330 331 331 331 331 330 331 333 335 334 333 331 330 331 331 332 332 332 331 330 330 329 328 327
329 330 331 332 331 331 331 331 332 333 334 333 334 333 333 334 334 334 334 334 334 333 333 332 332 333 334 335 335 334 334 334 334 333 332 332 331 330 330 330 331 331 330 330 329 330 330 332 333 332 331 331 330 331 331 331 331 331 331 330 330 330 329
328 329 330 331 330 330 330 330 330 331 331 331 332 332 332 332 332 333 333 333 333 333 332 332 333 333 334 334 334 334 335 335 334 334 333 332 331 330 329 329 330 331 330 330 330 330 329 330 332 332 331 330 330 330 331 331 331 331 330 330 330 330 329
327 327 328 329 329 330 330 330 330 330 330 330 331 331 331 331 331 331 332 332 333 333 332 333 333 333 333 333 334 334 335 334 334 334 333 333 332 331 330 330 330 331 330 330 331 331 330 330 331 332 330 330 331 330 330 330 330 331 331 330 330 330 329
325 325 325 326 327 328 329 329 330 330 330 330 330 330 331 331 331 330 330 331 331 332 332 332 332 332 333 333 334 335 334 334 333 333 333 333 333 332 331 330 331 331 331 331 331 331 331 330 330 330 330 330 331 330 330 330 329 330 331 331 331 330 329
323 323 323 323 324 326 326 326 327 327 328 329 329 330 330 330 330 330 330 330 331 331 331 332 332 332 332 333 333 334 334 334 333 334 333 333 332 332 332 331 331 331 331 331 331 330 332 332 330 328 329 329 330 330 330 330 330 330 330 331 331 330 330
321 321 321 321 322 322 323 323 324 325 325 326 328 328 329 330 330 330 330 330 330 330 330 331 332 332 332 332 333 333 333 333 333 333 333 332 331 331 332 331 331 331 331 331 331 330 332 333 331 329 328 329 330 330 330 331 330 330 330 331 331 330 330
320 320 320 320 319 320 320 322 322 323 323 324 326 327 328 329 330 329 329 329 330 330 330 330 331 331 331 332 333 333 333 333 332 331 331 331 330 330 331 332 332 331 331 332 331 331 331 332 332 331 329 329 330 331 330 330 330 330 331 330 330 331 330
318 318 318 318 317 318 319 320 321 321 322 322 323 325 326 327 328 329 329 329 329 329 329 330 330 330 330 331 331 331 331 331 330 329 330 329 329 330 330 331 331 331 330 331 332 332 331 331 332 331 329 328 329 330 330 331 330 329 330 330 330 330 331
316 317 317 316 316 316 317 317 318 319 319 320 321 323 324 325 326 327 328 329 329 329 329 329 329 329 330 330 330 330 330 330 329 329 328 329 329 329 328 328 329 330 330 329 330 333 332 331 330 330 330 328 327 328 329 330 330 329 329 330 330 330 331
314 315 315 315 315 315 315 315 316 316 317 318 320 321 322 323 324 324 326 327 328 328 328 328 328 329 329 329 329 329 329 329 329 329 328 328 329 329 329 328 329 330 330 329 330 331 332 331 329 330 330 327 327 328 327 328 331 330 329 329 329 329 330
313 313 313 313 313 313 313 313 313 314 314 316 317 318 319 321 320 321 323 324 324 325 325 325 326 327 328 328 328 328 328 328 328 328 328 328 328 329 329 330 330 330 331 331 330 329 330 330 329 329 329 327 327 328 327 327 330 330 329 329 329 329 329
311 312 311 311 311 311 311 312 312 312 312 312 313 314 316 317 316 317 319 318 319 320 321 322 323 324 325 326 327 328 329 329 329 328 328 328 328 328 329 331 331 331 331 331 330 329 329 329 329 329 329 328 327 328 327 327 328 329 328 328 329 328 329
310 310 310 310 310 310 310 310 310 310 310 310 310 311 313 313 313 315 315 314 315 316 318 319 321 322 322 323 325 327 328 329 330 329 328 328 328 329 330 330 331 331 331 331 330 330 329 329 329 329 328 328 328 328 327 327 327 327 326 326 327 327 327
309 309 309 309 309 309 308 309 308 308 308 308 308 308 309 310 311 312 312 311 311 313 314 315 317 318 319 320 322 324 326 328 328 329 329 328 328 329 330 330 330 330 331 330 329 329 329 328 329 329 328 328 328 327 327 327 327 326 326 326 326 326 326
309 309 308 308 308 307 307 307 307 307 307 307 306 307 307 307 308 309 309 309 309 309 311 312 313 314 315 317 318 320 322 324 326 327 328 328 328 328 329 329 329 329 329 329 329 328 328 328 328 328 328 328 328 328 328 328 327 326 326 326 326 326 326
308 308 307 307 307 306 306 306 305 305 305 304 305 305 305 305 305 305 306 306 307 306 306 307 309 311 312 313 315 317 319 322 323 325 327 327 328 328 328 328 328 329 329 329 329 329 329 328 328 328 327 328 328 328 328 327 327 327 326 326 326 326 326
307 307 307 306 306 305 305 304 304 304 303 302 302 303 303 303 303 303 303 303 304 304 303 304 306 308 309 311 312 315 317 320 322 324 325 326 327 327 327 327 328 329 330 329 329 329 329 328 328 328 327 327 328 328 328 327 327 327 326 326 326 326 325
306 306 306 306 305 304 304 303 303 303 302 301 301 301 301 302 302 302 302 302 302 302 302 303 304 305 307 309 311 312 315 318 321 323 324 325 326 327 327 326 327 328 329 330 329 329 328 328 328 327 327 328 328 328 328 328 326 326 326 326 326 326 325
306 306 306 305 304 304 303 303 303 302 301 301 300 300 300 300 300 301 301 301 301 301 301 301 302 304 306 307 309 311 313 315 318 321 323 324 325 326 326 326 327 328 329 330 329 329 329 328 328 328 328 328 327 327 328 327 326 326 326 326 326 325 325
305 305 305 305 304 304 303 303 303 302 301 301 300 300 300 299 299 300 300 300 300 300 300 299 300 302 305 307 310 312 313 314 316 318 322 324 325 326 326 326 327 328 328 328 328 329 329 329 328 328 329 328 327 327 327 327 326 326 326 325 325 325 324
304 304 305 305 304 303 302 302 302 302 301 300 300 299 299 299 299 299 299 299 299 299 299 298 299 302 305 307 309 312 314 315 315 316 319 322 324 325 326 326 326 327 328 328 328 329 329 329 329 329 329 329 328 327 327 326 326 326 326 325 325 324 324
304 304 304 304 304 303 302 301 301 302 301 300 299 299 299 299 298 298 298 298 299 299 298 298 300 304 306 308 310 311 313 314 315 316 316 318 321 323 324 325 327 328 328 328 329 329 329 329 329 329 329 329 329 329 327 326 325 325 325 325 325 324 324
302 302 303 304 303 303 302 301 301 301 300 300 299 299 298 298 298 298 298 298 298 298 298 298 300 303 306 309 310 312 312 312 314 315 316 316 318 321 322 324 325 326 327 328 329 329 329 328 329 329 329 329 329 329 327 326 326 325 325 324 325 324 324
301 301 302 302 302 302 302 301 301 301 300 300 299 299 298 298 298 298 298 297 298 297 297 298 300 302 305 308 310 311 311 310 312 314 315 315 316 319 321 323 324 325 326 327 329 329 328 328 328 328 329 329 328 328 327 327 327 326 325 324 324 324 324
300 300 300 299 299 299 300 300 301 300 300 299 299 299 298 298 297 297 297 297 298 298 297 298 299 301 304 307 309 310 309 308 309 310 311 311 313 315 318 320 322 324 326 327 328 328 328 328 327 327 328 328 327 327 327 327 326 326 325 324 324 324 324
299 298 297 297 297 297 298 298 299 300 299 299 299 298 298 298 297 297 297 297 297 298 297 298 299 300 302 305 307 308 308 306 306 307 308 309 309 310 313 316 318 320 323 325 327 327 327 327 327 327 327 326 325 326 326 327 326 326 325 324 323 324 324
298 297 297 296 296 296 296 297 298 299 299 298 298 297 297 297 297 297 297 297 297 297 297 298 299 300 301 303 304 305 305 304 304 305 306 306 307 308 309 311 314 316 319 322 324 325 326 326 327 326 326 325 325 325 325 326 326 325 326 325 324 324 324
297 297 296 296 296 296 295 295 296 297 298 297 297 296 297 297 297 296 296 296 296 297 297 297 298 299 300 301 302 302 302 302 302 303 304 304 305 306 306 307 309 312 316 320 322 323 325 326 326 325 325 324 323 322 322 323 324 324 325 325 325 325 324
297 296 296 296 295 295 295 295 295 296 297 296 296 295 296 296 297 296 296 296 296 296 297 297 298 299 299 300 301 300 300 300 301 301 302 303 303 304 305 306 307 309 313 317 321 323 324 326 325 324 324 323 320 318 319 320 321 321 323 324 324 325 324
297 296 296 295 295 295 295 294 295 295 295 295 295 295 295 296 297 297 296 296 296 296 296 297 297 298 299 299 300 299 299 299 299 299 300 300 301 302 303 304 305 307 311 316 320 322 324 325 325 324 323 321 317 316 316 317 319 319 320 320 320 320 321
296 296 295 295 295 295 294 294 295 295 295 295 295 295 295 296 296 297 297 296 296 296 296 297 297 298 298 299 299 299 298 298 298 298 298 298 298 299 300 301 302 305 310 315 319 322 323 323 323 324 322 319 317 315 314 314 316 317 317 317 316 315 315
297 296 295 295 295 295 294 294 295 295 295 295 295 295 295 295 296 297 297 297 297 297 296 297 297 297 298 298 299 299 298 297 297 297 297 297 297 297 298 298 300 302 307 312 317 320 320 319 320 321 319 318 317 315 313 313 313 314 315 314 313 312 312
297 296 296 295 295 295 294 294 294 294 295 295 294 294 295 295 295 296 297 297 297 297 297 297 297 297 297 297 298 298 299 298 298 297 297 297 297 296 297 297 298 300 304 308 312 316 316 317 318 319 317 317 316 314 313 313 312 312 312 311 311 310 310
297 297 296 295 295 294 294 294 294 294 295 295 294 294 294 295 295 295 296 296 297 297 297 297 297 297 297 297 297 297 298 298 298 297 296 296 296 296 296 297 298 300 301 303 306 309 310 311 313 314 313 312 312 311 312 312 312 311 310 309 309 308 306
298 297 297 296 295 295 294 294 294 294 295 295 295 294 294 294 295 295 295 295 296 297 297 297 297 297 297 297 297 297 297 298 298 297 297 296 296 297 297 297 298 299 299 300 301 303 304 305 307 308 309 309 308 308 308 309 309 309 308 307 306 305 303